Location: Squirrel Cove
(50.1074°N, 124.9139°W)
Time: 16:51:54
(UTC-07:00)

Envisat - Pass Details

Date: 12 September 2024
Orbit: 762 x 764 km, 98.3° (Epoch: 11 October)

Event Time Altitude Azimuth Distance (km) Brightness Sun altitude
Rises 05:39:20 0° 7° (N) 3,241 6.7 -12.1°
Reaches altitude 10° 05:41:50 10° 359° (N) 2,310 5.7 -11.7°
Maximum altitude 05:46:20 33° 296° (WNW) 1,270 3.8 -11.1°
Enters shadow 05:50:14 13° 237° (WSW) 2,097 4.6 -10.5°
